{"data":{"norad_id":61949,"epoch":"2026-09-21T21:09:44.898624Z","epoch_age_seconds":66156,"freshness":"FRESH","line1":"1 61949U 24209L   26264.88176966  .00133521  00000+0  10892-2 0  9993","line2":"2 61949  53.1575 123.9909 0000890  90.2683 269.8437 15.69713081107496","mean_motion":15.69713081,"eccentricity":8.9e-5,"inclination_deg":53.1575,"raan_deg":123.9909,"arg_perigee_deg":90.2683,"mean_anomaly_deg":269.8437,"bstar":0.0010892,"rev_number":10749,"period_min":91.736510157808,"perigee_km":359.11826470244,"apogee_km":360.31760288065,"semimajor_km":6737.8549337915,"source":"CELESTRAK","updated_at":"2026-09-22T09:00:49.455598Z"}}